SL-16 DEB, 22349

Orbit data source: Space-Track

SL-16 DEB, 22349 is space debris in LEO originally from a launch on Fri, 25 Dec 1992 UTC launched from the Tyuratam Missile And Space Complex (TTMTR). Debris objects in space refer to the collection of defunct objects orbiting the Earth. Examples of debris include non-operational satellites, rocket bodies, and fragments generated from explosions, collisions, or faulty payload assembly.

Loading next visibility...
Identifier
22349, 1992-093AN
Orbit
LEO
Country
Flag of CISCIS
Related business
Manufacturer
Unknown
Mission
Spacecraft
Bus & Motor
Unknown
Mass
Unknown
Launch date (UTC)
1992-12-25 (33 years ago)
Launch vehicle
Unknown
Launch site
Tyuratam Missile And Space Complex (TTMTR)
Object type
Payload
Rocket body
Debris
Shape & HBR
Unknown shape, 0.2 m
Radar Cross Section
Small (<0.1 m²)

Expand to show TLE details & history
Last TLE update: 1 day ago

TLE from 1 day ago
0 SL-16 DEB
1 22349U 92093AN  26132.43157926  .00000023  00000-0  55677-4 0  9993
2 22349  70.8215  12.8428 0184107 207.5237 337.6304 13.82736411677931
Epoch: 2026-05-12T10:21Z
TLE epoch observation values (Epoch: 2026-05-12T10:21:28.448Z)
Latitude
-4.22288°
Longitude
168.73201°
Altitude
832.715 km
Speed
7.499 km/s
True Right ascension
12h 57m 13s
True Declination
-4° 11' 53"
Sunlit
Object was in full shadow at epoch
Visualization orbit readout
Latitude
Unknown
Longitude
Unknown
Altitude
Unknown
Speed
Unknown
Apparent Right ascension
Unknown
Apparent Declination
Unknown
Sunlit
N/A
Visualization observer readout
Local Sidereal Time
19:34:54
Azimuth
Unknown
Elevation
Unknown
Doppler factor
Unknown
Orbital elements
Apogee altitude
1,087.126 km
Perigee altitude
817.214 km
Semi-major axis
7,330.307 km
Eccentricity
0.01841
Inclination
70.8215°
RAAN
12.8428°
Arg. of periapsis
207.5237°
True anomaly
336.81007°
Mean anomaly
337.6304°
Eccentric anomaly
337.222°
Mean motion
3.45828 °/min
Orbital period
104.1 mins
BSTAR
0.000055677
Loading maneuver chart data...
Computing Atmospheric mass density...
Loading historical data...
Loading historical data...
Loading historical data...
Loading historical data...
Loading historical data...
Loading historical data...
Loading historical data...

Documentation

Showing up to 5 results
|